Regional Weather Roundup
Issued by NWS

Home | Current Version | Previous Version | Graphics & Text | Print | Product List | Glossary On
Versions: 1 2 3 4 5 6 7 8 9 10 11 12 13 14 15 16 17 18 19 20 21 22 23 24 25 26 27 28 29 30 31 32 33 34 35 36 37 38 39 40 41 42 43 44 45 46 47 48 49 50
000
ASUS44 KMEG 160610
RWRTN
TENNESSEE HOURLY STATE WEATHER ROUNDUP
NATIONAL WEATHER SERVICE MEMPHIS TN
100 AM CDT WED APR 16 2014

TNZ002-004-019-021-049-052-054-088>092-160700-
WEST TENNESSEE

CITY           SKY/WX    TMP DP  RH WIND       PRES   REMARKS
MEMPHIS INTL   FAIR      42  24  49 SE3       30.25F
NWS MEMPHIS      N/A     34 N/A N/A MISG        N/A
JACKSON        FAIR      30  27  88 CALM      30.28R
DYERSBURG      FAIR      36  25  64 CALM      30.29R
UNION CITY     CLEAR     34  27  75 CALM      30.27R
PARIS          FAIR      32  23  69 SE3       30.28R
LEXINGTON      CLEAR     28  27  93 CALM      30.26S
$$

TNZ008-025-027-028-033-062-065-066-160700-
NORTH MIDDLE TENNESSEE

CITY           SKY/WX    TMP DP  RH WIND       PRES   REMARKS
NASHVILLE      FAIR      36  23  59 N5        30.28R WCI  32
DICKSON        FAIR      32  21  64 CALM      30.26R
CLARKSVILLE    FAIR      32  25  75 CALM      30.28R
SMYRNA         FAIR      34  23  64 N7        30.29R WCI  28
MURFREESBORO   FAIR      33  25  73 CALM      30.27R
LIVINGSTON     FAIR      30  22  72 NE5       30.23  WCI  25
GALLATIN       FAIR      34  23  64 N3        30.29R
CROSSVILLE     FAIR      32  22  66 N6        30.20R WCI  26
$$

TNZ061-075-076-078-094-096-097-160700-
SOUTH MIDDLE TENNESSEE

CITY           SKY/WX    TMP DP  RH WIND       PRES   REMARKS
LEWISBURG      FAIR      30  25  82 CALM      30.27R
FAYETTEVILLE   FAIR      32  22  67 N9        30.24R WCI  24
TULLAHOMA      CLEAR     30  21  69 N3        30.25R
WINCHESTER     CLEAR     28  25  86 CALM      30.25R
MCMINNVILLE    CLEAR     32  21  64 N5        30.24R WCI  27
COLUMBIA       CLEAR     30  28  93 CALM      30.26R
SHELBYVILLE    FAIR      30  27  86 CALM      30.28R
$$

TNZ017-018-042-046-047-160700-
NORTHEAST TENNESSEE

CITY           SKY/WX    TMP DP  RH WIND       PRES   REMARKS
TRI CITIES     MOCLDY    33  18  53 N8        30.20R WCI  26
ELIZABETHTON   MOCLDY    30  18  59 CALM      30.19R
$$

TNZ012-013-036-069-073-074-160700-
CENTRAL EAST TENNESSEE

CITY           SKY/WX    TMP DP  RH WIND       PRES   REMARKS
KNOXVILLE      FAIR      34  23  64 N7        30.22R WCI  28
OAK RIDGE      FAIR      34  23  64 CALM      30.25R
$$

TNZ083-085-099-160700-
SOUTHEAST TENNESSEE

CITY           SKY/WX    TMP DP  RH WIND       PRES   REMARKS
CHATTANOOGA    FAIR      38  25  59 N8        30.22R WCI  32
$$

SKY/WX REPORTED AS FAIR MEANS FEW OR NO CLOUDS BELOW
12 THOUSAND FEET.




USA.gov is the U.S. government's official web portal to all federal, state and local government web resources and services.